Time,TemperatureF,DewpointF,PressureIn,WindDirection,WindDirectionDegrees,WindSpeedMPH,WindSpeedGustMPH,Humidity,HourlyPrecipIn,Conditions,Clouds,dailyrainin,SoftwareType,DateUTC
2015-05-25 00:02:00,65.6,53.0,30.02,SSE,155,2.0,3.0,65,0.00,,,0.00,weatherlink.com 1.10,2015-05-25 04:02:00,
2015-05-25 00:33:00,64.7,54.0,30.01,South,171,2.0,4.0,69,0.00,,,0.00,weatherlink.com 1.10,2015-05-25 04:33:00,
2015-05-25 00:47:00,64.6,55.0,30.01,South,171,0.0,2.0,70,0.00,,,0.00,weatherlink.com 1.10,2015-05-25 04:47:00,
2015-05-25 01:03:00,64.3,55.0,30.00,South,171,1.0,4.0,71,0.00,,,0.00,weatherlink.com 1.10,2015-05-25 05:03:00,
2015-05-25 01:33:00,64.1,55.0,30.00,South,171,2.0,6.0,73,0.00,,,0.00,weatherlink.com 1.10,2015-05-25 05:33:00,
2015-05-25 01:48:00,64.0,56.0,30.00,South,171,1.0,3.0,74,0.00,,,0.00,weatherlink.com 1.10,2015-05-25 05:48:00,
2015-05-25 02:03:00,64.0,56.0,29.99,South,171,0.0,3.0,74,0.00,,,0.00,weatherlink.com 1.10,2015-05-25 06:03:00,
2015-05-25 02:18:00,64.0,56.0,29.99,South,171,2.0,2.0,74,0.00,,,0.00,weatherlink.com 1.10,2015-05-25 06:18:00,
2015-05-25 02:33:00,64.2,55.0,29.98,South,171,0.0,4.0,73,0.00,,,0.00,weatherlink.com 1.10,2015-05-25 06:33:00,
2015-05-25 03:03:00,64.5,55.0,29.97,South,171,0.0,3.0,72,0.00,,,0.00,weatherlink.com 1.10,2015-05-25 07:03:00,
2015-05-25 03:18:00,65.0,55.0,29.97,South,171,0.0,3.0,71,0.00,,,0.00,weatherlink.com 1.10,2015-05-25 07:18:00,
2015-05-25 03:33:00,65.3,55.0,29.97,South,171,4.0,5.0,70,0.00,,,0.00,weatherlink.com 1.10,2015-05-25 07:33:00,
2015-05-25 03:48:00,65.6,55.0,29.97,South,171,2.0,5.0,69,0.00,,,0.00,weatherlink.com 1.10,2015-05-25 07:48:00,
2015-05-25 04:03:00,65.8,55.0,29.96,South,171,5.0,5.0,69,0.00,,,0.00,weatherlink.com 1.10,2015-05-25 08:03:00,
2015-05-25 04:18:00,65.8,55.0,29.96,South,171,2.0,4.0,68,0.00,,,0.00,weatherlink.com 1.10,2015-05-25 08:18:00,
2015-05-25 04:33:00,65.9,55.0,29.96,South,171,1.0,4.0,68,0.00,,,0.00,weatherlink.com 1.10,2015-05-25 08:33:00,
2015-05-25 04:48:00,65.7,55.0,29.95,South,171,4.0,5.0,68,0.00,,,0.00,weatherlink.com 1.10,2015-05-25 08:48:00,
2015-05-25 05:03:00,65.4,55.0,29.95,South,171,5.0,5.0,69,0.00,,,0.00,weatherlink.com 1.10,2015-05-25 09:03:00,
2015-05-25 05:18:00,65.2,55.0,29.95,South,171,5.0,5.0,69,0.00,,,0.00,weatherlink.com 1.10,2015-05-25 09:18:00,
2015-05-25 05:33:00,64.7,55.0,29.95,South,171,1.0,5.0,70,0.00,,,0.00,weatherlink.com 1.10,2015-05-25 09:33:00,
2015-05-25 05:48:00,64.3,54.0,29.95,South,171,6.0,6.0,70,0.00,,,0.00,weatherlink.com 1.10,2015-05-25 09:48:00,
2015-05-25 06:03:00,64.2,55.0,29.95,South,171,4.0,6.0,71,0.00,,,0.00,weatherlink.com 1.10,2015-05-25 10:03:00,
2015-05-25 06:18:00,64.2,55.0,29.95,South,182,1.0,8.0,71,0.00,,,0.00,weatherlink.com 1.10,2015-05-25 10:18:00,
2015-05-25 06:33:00,64.2,55.0,29.95,South,182,3.0,5.0,71,0.00,,,0.00,weatherlink.com 1.10,2015-05-25 10:33:00,
2015-05-25 06:48:00,64.2,55.0,29.95,South,178,3.0,7.0,72,0.00,,,0.00,weatherlink.com 1.10,2015-05-25 10:48:00,
2015-05-25 08:03:00,67.0,58.0,29.96,SSW,198,6.0,10.0,73,0.00,,,0.00,weatherlink.com 1.10,2015-05-25 12:03:00,
2015-05-25 08:18:00,67.8,59.0,29.96,West,271,4.0,9.0,73,0.00,,,0.00,weatherlink.com 1.10,2015-05-25 12:18:00,
2015-05-25 08:33:00,68.5,60.0,29.96,WSW,248,5.0,13.0,73,0.00,,,0.00,weatherlink.com 1.10,2015-05-25 12:33:00,
2015-05-25 08:48:00,69.2,60.0,29.96,SW,236,7.0,10.0,73,0.00,,,0.00,weatherlink.com 1.10,2015-05-25 12:48:00,
2015-05-25 09:18:00,70.0,62.0,29.96,SW,229,3.0,12.0,75,0.00,,,0.00,weatherlink.com 1.10,2015-05-25 13:18:00,
2015-05-25 10:04:00,72.1,64.0,29.94,South,190,8.0,18.0,76,0.00,,,0.00,weatherlink.com 1.10,2015-05-25 14:04:00,
2015-05-25 10:19:00,72.6,65.0,29.93,SW,221,5.0,17.0,76,0.00,,,0.00,weatherlink.com 1.10,2015-05-25 14:19:00,
2015-05-25 10:49:00,73.4,65.0,29.93,WSW,258,10.0,17.0,76,0.00,,,0.00,weatherlink.com 1.10,2015-05-25 14:49:00,
2015-05-25 11:04:00,73.2,65.0,29.93,South,190,2.0,23.0,76,0.00,,,0.00,weatherlink.com 1.10,2015-05-25 15:04:00,
2015-05-25 11:34:00,73.8,66.0,29.93,WSW,240,3.0,17.0,76,0.00,,,0.00,weatherlink.com 1.10,2015-05-25 15:34:00,
2015-05-25 11:49:00,73.8,66.0,29.93,SW,227,8.0,25.0,76,0.00,,,0.00,weatherlink.com 1.10,2015-05-25 15:49:00,
2015-05-25 12:05:00,74.4,66.0,29.93,WSW,244,5.0,25.0,75,0.00,,,0.00,weatherlink.com 1.10,2015-05-25 16:05:00,
2015-05-25 12:34:00,75.7,67.0,29.93,WSW,240,15.0,20.0,75,0.00,,,0.00,weatherlink.com 1.10,2015-05-25 16:34:00,
2015-05-25 12:49:00,75.6,66.0,29.92,WSW,244,11.0,28.0,73,0.00,,,0.00,weatherlink.com 1.10,2015-05-25 16:49:00,
2015-05-25 13:03:00,77.4,66.0,29.92,SW,220,9.0,25.0,68,0.00,,,0.00,weatherlink.com 1.10,2015-05-25 17:03:00,
2015-05-25 13:19:00,77.1,67.0,29.91,WSW,255,10.0,24.0,70,0.00,,,0.00,weatherlink.com 1.10,2015-05-25 17:19:00,
2015-05-25 13:34:00,76.2,66.0,29.92,WNW,290,15.0,26.0,70,0.00,,,0.00,weatherlink.com 1.10,2015-05-25 17:34:00,
2015-05-25 13:49:00,69.8,66.0,29.92,West,272,8.0,19.0,87,0.02,,,0.02,weatherlink.com 1.10,2015-05-25 17:49:00,
2015-05-25 14:04:00,70.7,68.0,29.91,West,259,3.0,13.0,91,0.02,,,0.02,weatherlink.com 1.10,2015-05-25 18:04:00,
2015-05-25 14:19:00,74.2,70.0,29.91,SW,228,5.0,15.0,86,0.02,,,0.02,weatherlink.com 1.10,2015-05-25 18:19:00,
2015-05-25 14:34:00,76.6,69.0,29.90,West,260,17.0,18.0,78,0.02,,,0.02,weatherlink.com 1.10,2015-05-25 18:34:00,
2015-05-25 14:49:00,77.5,69.0,29.90,WNW,287,5.0,18.0,74,0.00,,,0.02,weatherlink.com 1.10,2015-05-25 18:49:00,
2015-05-25 15:04:00,77.9,67.0,29.89,SW,226,15.0,24.0,68,0.00,,,0.02,weatherlink.com 1.10,2015-05-25 19:04:00,
2015-05-25 15:20:00,78.4,66.0,29.89,WSW,244,9.0,26.0,66,0.00,,,0.02,weatherlink.com 1.10,2015-05-25 19:20:00,